Date String (YYYY-MM-DD hh:mm:ss) UTC,Instrument flags,absolute air pressure of the measurement (hPa),sample flow rate (lpm),inlet stack bypass flow (lpm),air temperature of the measurement (°C),ambient temperature measured by the external sensor (°C),aerosol sample conditioner tube jacket temperature (°C),OPC LED temperature (°C),internal box temperature (°C),relative humidity of the measurement (%),span deviation,mass concentration of particles derived from Lorenz-Mie calculation of OPC scattering (μg/m³),mass concentration of particles derived from Lorenz-Mie calculation of OPC scattering (μg/m³),mass concentration of particles derived from Lorenz-Mie calculation of OPC scattering (μg/m³)
DateTimeUTC,F1_M11,P_M11,Q1_M11,Q2_M11,T1_M11,T2_M11,T3_M11,T4_M11,T5_M11,U1_M11,ZSPAN_M11,X0_M11,X2_M11,X1_M11
2023-07-05 08:00:00,SystemResetWarning,0836.9,5.00,000.00,029.8,028.6,000.0,038.4,031.4,32.2,-000.5,0008.18,0005.16,0004.72
2023-07-05 08:01:00,SystemResetWarning,0836.8,5.02,000.00,029.9,028.6,000.0,038.4,031.4,32.3,-000.4,0008.03,0005.17,0004.75
2023-07-05 08:02:00,SystemResetWarning,0836.9,4.98,000.00,029.9,028.6,000.0,038.4,031.4,32.3,0000.3,0007.97,0005.15,0004.76
2023-07-05 08:03:00,SystemResetWarning,0836.9,4.99,000.00,029.9,028.7,000.0,038.4,031.5,32.2,0001.4,0007.94,0005.17,0004.78
2023-07-05 08:04:00,SystemResetWarning,0836.9,5.00,000.00,029.9,028.7,000.0,038.4,031.5,32.2,0000.8,0007.98,0005.20,0004.79
2023-07-05 08:05:00,SystemResetWarning,0837.0,5.00,000.00,029.9,028.7,000.0,038.4,031.5,32.1,0000.8,0007.96,0005.19,0004.81
2023-07-05 08:06:00,SystemResetWarning,0837.0,5.01,000.00,029.9,028.7,000.0,038.4,031.5,32.0,-000.7,0007.95,0005.16,0004.79
2023-07-05 08:07:00,SystemResetWarning,0837.0,5.00,000.00,029.9,028.7,000.0,038.5,031.5,31.3,-001.0,0007.89,0005.13,0004.77
2023-07-05 08:08:00,SystemResetWarning,0837.0,5.01,000.00,029.9,028.7,000.0,038.5,031.5,31.1,-000.5,0007.87,0005.12,0004.78
2023-07-05 08:09:00,SystemResetWarning,0837.0,5.00,000.00,030.0,028.8,000.0,038.5,031.5,31.2,-001.4,0007.82,0005.10,0004.77
2023-07-05 08:10:00,SystemResetWarning,0837.0,5.00,000.00,030.0,028.8,000.0,038.5,031.6,31.2,-001.1,0007.71,0005.05,0004.73
2023-07-05 08:11:00,SystemResetWarning,0837.0,4.99,000.00,030.0,028.8,000.0,038.5,031.6,30.3,-000.3,0007.55,0004.94,0004.65
2023-07-05 08:12:00,SystemResetWarning,0837.0,5.00,000.00,030.0,028.8,000.0,038.5,031.6,30.5,0000.7,0007.55,0004.89,0004.59
2023-07-05 08:13:00,SystemResetWarning,0837.0,5.00,000.00,030.0,028.8,000.0,038.5,031.6,31.2,0000.7,0007.57,0004.88,0004.57
2023-07-05 08:14:00,SystemResetWarning,0837.0,5.00,000.00,030.0,028.8,000.0,038.6,031.6,31.5,-000.1,0007.52,0004.81,0004.50
2023-07-05 08:15:00,SystemResetWarning,0837.0,5.00,000.00,030.0,028.8,000.0,038.6,031.6,31.1,0000.1,0007.44,0004.70,0004.40
2023-07-05 08:16:00,SystemResetWarning,0836.9,5.00,000.00,030.1,028.8,000.0,038.6,031.6,31.1,0000.8,0007.38,0004.63,0004.34
2023-07-05 08:17:00,SystemResetWarning,0837.0,5.00,000.00,030.1,028.8,000.0,038.6,031.6,31.7,0000.8,0007.58,0004.63,0004.32
2023-07-05 08:18:00,SystemResetWarning,0836.9,5.00,000.00,030.1,028.8,000.0,038.6,031.7,31.7,0000.5,0007.83,0004.60,0004.30
2023-07-05 08:19:00,SystemResetWarning,0836.9,5.00,000.00,030.1,028.8,000.0,038.6,031.7,31.6,0000.6,0007.72,0004.51,0004.22
2023-07-05 08:20:00,SystemResetWarning,0836.9,5.00,000.00,030.1,028.9,000.0,038.6,031.7,31.5,0000.7,0007.68,0004.49,0004.21
2023-07-05 08:21:00,SystemResetWarning,0837.0,5.00,000.00,030.1,028.9,000.0,038.6,031.7,31.4,-000.2,0007.74,0004.51,0004.23
2023-07-05 08:22:00,SystemResetWarning,0837.0,5.00,000.00,030.1,028.8,000.0,038.7,031.7,31.6,-000.6,0007.98,0004.61,0004.30
2023-07-05 08:23:00,SystemResetWarning,0837.0,4.97,000.00,030.1,027.1,000.0,038.5,031.5,31.3,-002.1,0008.02,0004.65,0004.34
2023-07-05 08:24:00,SystemResetWarning,0836.9,5.02,000.00,030.0,025.6,000.0,038.4,031.3,31.2,-003.1,0008.03,0004.67,0004.35
2023-07-05 08:25:00,SystemResetWarning,0836.9,5.01,000.00,029.9,025.2,000.0,038.4,030.9,31.5,-003.2,0008.09,0004.70,0004.38
2023-07-05 08:26:00,SystemResetWarning,0836.9,5.00,000.00,029.7,025.5,000.0,038.4,030.8,31.9,-003.5,0008.76,0004.79,0004.43
2023-07-05 08:27:00,SystemResetWarning,0836.9,5.01,000.00,029.7,025.9,000.0,038.4,030.8,32.2,-003.8,0009.27,0004.82,0004.43
2023-07-05 08:28:00,SystemResetWarning,0837.0,4.99,000.00,029.6,026.3,000.0,038.4,030.9,32.1,-003.8,0009.13,0004.79,0004.41
2023-07-05 08:29:00,SystemResetWarning,0836.9,5.00,000.00,029.6,026.7,000.0,038.3,031.0,32.2,-003.7,0008.76,0004.78,0004.38
2023-07-05 08:30:00,SystemResetWarning,0836.9,5.01,000.00,029.6,027.0,000.0,038.3,031.0,32.0,-003.8,0008.75,0004.79,0004.40
2023-07-05 08:31:00,SystemResetWarning,0836.8,5.01,000.00,029.6,027.3,000.0,038.3,031.0,32.0,-003.6,0008.78,0004.79,0004.39
2023-07-05 08:32:00,SystemResetWarning,0836.9,4.99,000.00,029.6,027.5,000.0,038.3,031.1,32.0,-003.5,0008.72,0004.74,0004.35
2023-07-05 08:33:00,SystemResetWarning,0836.9,5.00,000.00,029.6,027.7,000.0,038.3,031.1,31.8,-002.1,0008.71,0004.67,0004.30
2023-07-05 08:34:00,SystemResetWarning,0837.0,5.00,000.00,029.6,027.9,000.0,038.3,031.1,31.9,-003.8,0008.64,0004.62,0004.26
2023-07-05 08:35:00,SystemResetWarning,0836.9,5.00,000.00,029.6,028.0,000.0,038.3,031.1,31.6,-000.0,0009.07,0004.57,0004.22
2023-07-05 08:36:00,SystemResetWarning,0837.0,5.00,000.00,029.6,028.1,000.0,038.3,031.2,31.7,0000.0,0009.68,0004.52,0004.20
2023-07-05 08:37:00,SystemResetWarning,0837.0,5.00,000.00,029.6,028.2,000.0,038.3,031.2,31.9,0000.0,0009.30,0004.49,0004.18
2023-07-05 08:38:00,SystemResetWarning,0837.0,5.00,000.00,029.7,028.2,000.0,038.3,031.2,31.3,0000.0,0008.77,0004.47,0004.19
2023-07-05 08:39:00,SystemResetWarning,0836.9,5.00,000.00,029.7,028.3,000.0,038.3,031.3,31.0,0000.0,0008.74,0004.46,0004.18
2023-07-05 08:40:00,SystemResetWarning,0837.0,5.01,000.00,029.7,028.4,000.0,038.3,031.3,31.0,0000.0,0008.70,0004.45,0004.18
2023-07-05 08:41:00,SystemResetWarning,0836.9,5.01,000.00,029.7,028.4,000.0,038.3,031.3,31.1,0000.0,0008.68,0004.43,0004.17
2023-07-05 08:42:00,SystemResetWarning,0836.9,5.01,000.00,029.7,028.4,000.0,038.3,031.3,31.0,0000.0,0008.65,0004.41,0004.14
2023-07-05 08:43:00,SystemResetWarning,0836.8,5.00,000.00,029.7,028.5,000.0,038.3,031.3,30.7,0000.0,0008.59,0004.38,0004.11
2023-07-05 08:44:00,SystemResetWarning,0836.8,5.00,000.00,029.8,028.5,000.0,038.3,031.3,30.3,0000.0,0008.35,0004.36,0004.09
2023-07-05 08:45:00,SystemResetWarning,0836.8,5.00,000.00,029.8,028.5,000.0,038.3,031.3,30.0,0000.3,0008.45,0004.35,0004.08
2023-07-05 08:46:00,SystemResetWarning,0836.8,5.00,000.00,029.8,028.6,000.0,038.3,031.4,30.1,0000.4,0008.29,0004.35,0004.06
2023-07-05 08:47:00,SystemResetWarning,0836.8,4.99,000.00,029.8,028.6,000.0,038.3,031.4,29.9,-000.7,0007.68,0004.34,0004.03
2023-07-05 08:48:00,SystemResetWarning,0836.8,5.00,000.00,029.8,028.6,000.0,038.3,031.4,29.5,-000.5,0007.36,0004.30,0003.99
2023-07-05 08:49:00,SystemResetWarning,0836.8,5.00,000.00,029.8,028.6,000.0,038.4,031.4,29.4,-000.5,0007.29,0004.26,0003.95
2023-07-05 08:50:00,SystemResetWarning,0836.7,5.00,000.00,029.9,028.7,000.0,038.4,031.4,29.8,-000.0,0007.30,0004.24,0003.92
2023-07-05 08:51:00,SystemResetWarning,0836.6,5.01,000.00,029.9,028.7,000.0,038.4,031.4,29.7,-000.3,0007.17,0004.18,0003.87
2023-07-05 08:52:00,SystemResetWarning,0836.6,5.00,000.00,029.9,028.7,000.0,038.4,031.5,29.8,-000.3,0007.06,0004.13,0003.82
2023-07-05 08:53:00,SystemResetWarning,0836.6,4.99,000.00,029.9,028.7,000.0,038.4,031.5,30.1,-000.1,0007.13,0004.12,0003.80
2023-07-05 08:54:00,SystemResetWarning,0836.7,4.99,000.00,029.9,028.7,000.0,038.4,031.5,30.2,0000.2,0007.15,0004.12,0003.80
2023-07-05 08:55:00,SystemResetWarning,0836.8,4.99,000.00,029.9,028.7,000.0,038.4,031.5,30.4,-000.1,0007.16,0004.12,0003.79
2023-07-05 08:56:00,SystemResetWarning,0836.9,5.00,000.00,030.0,028.7,000.0,038.4,031.5,30.4,-000.3,0007.06,0004.12,0003.79
2023-07-05 08:57:00,SystemResetWarning,0837.0,5.00,000.00,030.0,028.8,000.0,038.5,031.5,30.4,0000.0,0006.50,0004.11,0003.80
2023-07-05 08:58:00,SystemResetWarning,0837.0,5.00,000.00,030.0,028.8,000.0,038.5,031.5,30.4,0000.0,0006.41,0004.12,0003.81
2023-07-05 08:59:00,SystemResetWarning,0837.0,5.00,000.00,030.0,028.8,000.0,038.5,031.6,30.4,-000.2,0006.64,0004.15,0003.84
